Date String (YYYY-MM-DD hh:mm:ss) UTC,Instrument flags,Ambient pressure (hPa),Sample flow (lpm),Bypass flow (lpm),Sample temperature (°C),Ambient temperature (°C),ASC tube jacket temperature (°C),LED temperature (°C),Box temperature (°C),Sample RH (%),Span deviation,Mass concentration (μg/m³),Mass concentration (μg/m³),Mass concentration (μg/m³)
DateTimeUTC,F1_M11,P_M11,Q1_M11,Q2_M11,T1_M11,T2_M11,T3_M11,T4_M11,T5_M11,U1_M11,ZSPAN_M11,X0_M11,X2_M11,X1_M11
2022-10-24 11:00:00,,0817.3,4.99,0.00,21.5,20.1,00.0,30.5,23.4,08.0,0000.0,0002.08,0001.52,0001.41
2022-10-24 11:01:00,,0817.3,5.02,0.00,21.5,20.1,00.0,30.5,23.4,07.9,0000.0,0002.18,0001.51,0001.41
2022-10-24 11:02:00,,0817.4,5.01,0.00,21.5,20.1,00.0,30.5,23.4,08.0,0000.0,0002.17,0001.51,0001.42
2022-10-24 11:03:00,,0817.4,4.97,0.00,21.6,20.1,00.0,30.5,23.4,08.0,0000.0,0002.15,0001.50,0001.42
2022-10-24 11:04:00,,0817.4,5.00,0.00,21.5,20.1,00.0,30.5,23.4,08.0,0000.0,0002.12,0001.49,0001.42
2022-10-24 11:05:00,,0817.3,5.00,0.00,21.6,20.1,00.0,30.5,23.4,08.0,0000.0,0002.17,0001.51,0001.43
2022-10-24 11:06:00,,0817.2,5.00,0.00,21.6,20.2,00.0,30.5,23.5,08.0,0000.0,0002.30,0001.53,0001.42
2022-10-24 11:07:00,,0817.2,5.00,0.00,21.6,20.2,00.0,30.5,23.4,07.9,0000.0,0002.30,0001.53,0001.42
2022-10-24 11:08:00,,0817.2,5.00,0.00,21.6,20.2,00.0,30.5,23.4,07.9,0000.0,0003.00,0001.52,0001.43
2022-10-24 11:09:00,,0817.2,5.00,0.00,21.6,20.2,00.0,30.5,23.5,08.0,0000.0,0003.60,0001.52,0001.43
2022-10-24 11:10:00,,0817.2,5.00,0.00,21.6,20.2,00.0,30.5,23.5,08.0,0000.0,0003.56,0001.51,0001.41
2022-10-24 11:11:00,,0817.2,5.00,0.00,21.6,20.2,00.0,30.5,23.5,08.0,0000.0,0003.49,0001.50,0001.41
2022-10-24 11:12:00,,0817.2,4.97,0.00,21.6,20.2,00.0,30.5,23.5,07.9,0000.0,0003.36,0001.52,0001.41
2022-10-24 11:13:00,,0817.1,5.00,0.00,21.6,20.2,00.0,30.5,23.4,08.0,0000.0,0003.36,0001.52,0001.41
2022-10-24 11:14:00,,0817.1,5.01,0.00,21.6,20.3,00.0,30.5,23.5,07.9,0000.0,0003.36,0001.52,0001.40
2022-10-24 11:15:00,,0817.1,4.99,0.00,21.7,21.1,00.0,30.5,23.8,07.7,0000.0,0003.39,0001.52,0001.40
2022-10-24 11:16:00,,0817.1,5.01,0.00,21.8,21.8,00.0,30.5,23.9,07.8,0000.0,0003.35,0001.51,0001.40
2022-10-24 11:17:00,,0817.1,5.01,0.00,21.9,21.8,00.0,30.6,24.0,07.8,0000.0,0003.30,0001.52,0001.41
2022-10-24 11:18:00,,0817.1,4.99,0.00,21.9,21.6,00.0,30.6,24.0,07.7,0000.0,0003.26,0001.51,0001.40
2022-10-24 11:19:00,,0817.0,5.00,0.00,21.9,21.4,00.0,30.6,24.0,07.8,0000.0,0002.96,0001.51,0001.40
2022-10-24 11:20:00,,0817.0,4.99,0.00,22.0,21.2,00.0,30.6,24.1,07.7,0000.0,0001.91,0001.51,0001.40
2022-10-24 11:21:00,,0817.0,5.01,0.00,22.0,21.1,00.0,30.7,24.0,07.8,0000.0,0001.91,0001.51,0001.41
2022-10-24 11:22:00,,0817.0,5.00,0.00,22.0,21.0,00.0,30.7,23.9,07.8,0000.0,0001.88,0001.50,0001.41
2022-10-24 11:23:00,,0817.0,5.00,0.00,22.0,20.9,00.0,30.7,23.9,07.8,0000.0,0001.84,0001.48,0001.41
2022-10-24 11:24:00,,0816.9,5.00,0.00,22.0,20.8,00.0,30.7,23.9,07.9,0000.0,0001.98,0001.50,0001.41
2022-10-24 11:25:00,,0817.0,5.00,0.00,22.0,20.8,00.0,30.7,23.9,07.9,0000.0,0002.01,0001.51,0001.41
2022-10-24 11:26:00,,0817.0,5.00,0.00,22.0,20.7,00.0,30.8,23.8,07.9,0000.0,0001.99,0001.50,0001.41
2022-10-24 11:27:00,,0817.0,5.00,0.00,22.0,20.6,00.0,30.8,23.7,07.9,0000.0,0002.05,0001.50,0001.40
2022-10-24 11:28:00,,0817.0,5.00,0.00,22.0,20.5,00.0,30.8,23.8,07.9,0000.0,0002.04,0001.48,0001.40
2022-10-24 11:29:00,,0817.0,5.00,0.00,22.0,20.5,00.0,30.8,23.8,08.0,0000.0,0001.99,0001.46,0001.39
2022-10-24 11:30:00,,0817.0,5.00,0.00,21.9,20.5,00.0,30.8,23.7,07.9,0000.0,0002.02,0001.47,0001.40
2022-10-24 11:31:00,,0817.0,5.02,0.00,21.9,20.5,00.0,30.8,23.8,08.0,0000.0,0002.05,0001.49,0001.40
2022-10-24 11:32:00,,0817.0,4.98,0.00,21.9,20.5,00.0,30.8,23.7,08.0,0000.0,0002.06,0001.49,0001.40
2022-10-24 11:33:00,,0817.1,5.00,0.00,21.9,20.4,00.0,30.8,23.7,08.0,0000.0,0002.07,0001.49,0001.41
2022-10-24 11:34:00,,0817.0,5.00,0.00,21.9,20.4,00.0,30.8,23.7,08.0,0000.0,0002.06,0001.49,0001.42
2022-10-24 11:35:00,,0817.0,4.99,0.00,21.9,20.4,00.0,30.8,23.7,08.1,0000.0,0001.92,0001.47,0001.42
2022-10-24 11:36:00,,0817.0,5.02,0.00,21.9,20.3,00.0,30.8,23.6,08.1,0000.0,0001.91,0001.48,0001.42
2022-10-24 11:37:00,,0817.0,5.00,0.00,21.9,20.3,00.0,30.8,23.7,08.1,0000.0,0002.03,0001.51,0001.43
2022-10-24 11:38:00,,0817.0,4.99,0.00,21.9,20.3,00.0,30.8,23.7,08.1,0000.0,0002.04,0001.53,0001.44
2022-10-24 11:39:00,,0817.0,4.99,0.00,21.8,20.3,00.0,30.8,23.6,08.2,0000.0,0002.05,0001.54,0001.44
2022-10-24 11:40:00,,0817.0,5.00,0.00,21.8,20.3,00.0,30.8,23.6,08.1,0000.0,0002.15,0001.55,0001.45
2022-10-24 11:41:00,,0817.1,5.00,0.00,21.8,20.2,00.0,30.8,23.6,08.1,0000.0,0002.12,0001.54,0001.45
2022-10-24 11:42:00,,0817.1,5.00,0.00,21.8,20.2,00.0,30.8,23.6,08.1,0000.0,0002.09,0001.54,0001.45
2022-10-24 11:43:00,,0817.3,5.02,0.00,21.8,20.2,00.0,30.8,23.6,08.1,0000.0,0002.14,0001.56,0001.47
2022-10-24 11:44:00,,0817.3,4.98,0.00,21.8,20.2,00.0,30.8,23.7,08.0,0000.0,0002.15,0001.57,0001.48
2022-10-24 11:45:00,,0817.4,5.00,0.00,21.8,20.2,00.0,30.8,23.7,08.0,0000.0,0002.17,0001.59,0001.48
2022-10-24 11:46:00,,0817.3,5.01,0.00,21.8,20.3,00.0,30.7,23.7,08.1,0000.0,0002.17,0001.59,0001.48
2022-10-24 11:47:00,,0817.4,5.00,0.00,21.8,20.3,00.0,30.7,23.7,08.1,0000.0,0002.20,0001.60,0001.48
2022-10-24 11:48:00,,0817.3,5.00,0.00,21.8,20.4,00.0,30.7,23.7,08.1,0000.0,0002.21,0001.60,0001.48
2022-10-24 11:49:00,,0817.4,5.00,0.00,21.8,20.4,00.0,30.7,23.7,08.1,0000.0,0002.14,0001.61,0001.48
2022-10-24 11:50:00,,0817.5,5.01,0.00,21.8,20.4,00.0,30.7,23.7,08.1,0000.0,0002.10,0001.60,0001.48
2022-10-24 11:51:00,,0817.5,5.00,0.00,21.8,20.4,00.0,30.7,23.7,08.1,0000.0,0002.07,0001.61,0001.49
2022-10-24 11:52:00,,0817.5,5.00,0.00,21.8,20.4,00.0,30.7,23.7,08.1,0000.0,0002.22,0001.63,0001.50
2022-10-24 11:53:00,,0817.5,5.00,0.00,21.8,20.5,00.0,30.7,23.7,08.1,0000.0,0002.24,0001.63,0001.50
2022-10-24 11:54:00,,0817.5,5.00,0.00,21.9,20.5,00.0,30.7,23.7,08.1,0000.0,0002.30,0001.62,0001.49
2022-10-24 11:55:00,,0817.6,5.00,0.00,21.9,20.5,00.0,30.7,23.8,08.1,0000.0,0002.41,0001.62,0001.48
2022-10-24 11:56:00,,0817.7,4.99,0.00,21.9,20.5,00.0,30.7,23.8,08.1,0000.0,0002.39,0001.59,0001.46
2022-10-24 11:57:00,,0817.8,5.00,0.00,21.9,20.5,00.0,30.7,23.8,08.1,0000.0,0002.43,0001.61,0001.47
2022-10-24 11:58:00,,0817.8,4.98,0.00,21.9,20.5,00.0,30.7,23.8,08.1,0000.0,0002.41,0001.60,0001.47
2022-10-24 11:59:00,,0817.9,5.01,0.00,21.9,20.5,00.0,30.7,23.8,08.1,0000.0,0002.37,0001.60,0001.48
